Preview of NWS' New Version of Forecast
This preview is not operational and should not be used for support decisions.

Regional Weather Roundup (RWR)

Issued by Newport/Morehead City, NC (MHX)

                            
000
ASUS42 KMHX 241614
RWRMHX
WEATHER ROUNDUP FOR EASTERN NORTH CAROLINA
NATIONAL WEATHER SERVICE NEWPORT/MOREHEAD CITY NC
1200 PM EDT WED APR 24 2019

NOTE: "FAIR" INDICATES FEW OR NO CLOUDS BELOW 12,000 FEET
WITH NO SIGNIFICANT WEATHER AND/OR OBSTRUCTIONS TO VISIBILITY

NCZ015>017-031-032-045>047-102-103-241700-
NORTH COAST
  
CITY           SKY/WX    TMP DP  RH WIND       PRES   REMARKS
EDENTON        FAIR      76  63  64 SW5       29.91S                  
ELIZABETH CITY FAIR      74  59  59 SW6       29.88F                  
KITTY HAWK     FAIR      70  58  66 W5        29.89S                  
MANTEO         FAIR      74  57  55 NW8       29.90S                  

$$

NCZ045>047-081-094-103-104-241700-
CENTRAL COAST
  
CITY           SKY/WX    TMP DP  RH WIND       PRES   REMARKS
FRISCO         FAIR      73  66  78 SW13G21   29.92S                  

$$

NCZ095-097-098-100-101-241700-
SOUTHERN COAST
  
CITY           SKY/WX    TMP DP  RH WIND       PRES   REMARKS
BEAUFORT       FAIR      75  62  64 W13       29.93F                  
CEDAR ISLAND   NOT AVBL                                               
JACKSONVILLE   FAIR      80  58  46 NW8       29.93F                  
PINEY ISLAND   NOT AVBL                                               
WILMINGTON     FAIR      75  57  53 W7        29.95F                  


$$

NCZ011>013-027>030-043-044-078>080-089-090>093-098-241700-
COASTAL PLAIN
  
CITY           SKY/WX    TMP DP  RH WIND       PRES   REMARKS
AHOSKIE        FAIR      79  57  46 NW6       29.89F                  
CLINTON        FAIR      79  59  50 CALM      29.94F                  
ELIZABETHTOWN  FAIR      78  59  51 W3        29.96F                  
GOLDSBORO      NOT AVBL                                               
GREENVILLE     FAIR      81  57  44 W5        29.93F                  
HAVELOCK       NOT AVBL                                               
KENANSVILLE    FAIR      81  57  44 W6        29.93F                  
KINSTON        SUNNY     81  55  41 W6        29.93F                  
NEW BERN       FAIR      79  62  56 W6        29.93F                  
RICHLANDS      FAIR      81  61  50 W6        29.95S                  
ROCKY MOUNT    FAIR      79  57  46 W8        29.92F                  
WASHINGTON     FAIR      79  57  47 W3        29.92F                  
WHITEVILLE     FAIR      74  58  56 SW3       29.96F                  

$$

AMZ130-135-150-152-154-156-158-170-250-252-270-ANZ085-086-088-633-658-670-241700-
MARINE OBSERVATIONS
  
STATION/POSITION TIME  TEMP    WIND        PRES    WAVE   SWELL
                       AIR SEA DIR/SP/G            HT/PER HT/PER
                 (UTC) (F)     (DEG/KT/KT) (MB)    (FT/S) (FT/S)
64 E VA BEACH    1550   59 56  230/  8/ 10 1012.0    5/ 6   5/ 6
DUCK             1548      51  240/ 11/ 13 1011.8
2 E DUCK         1600      53                N/A     2/ 8   2/11
10 NE DUCK       1530      59                N/A     3/ 8   2/11
OREGON INLET     1536   70 68  230/  7/  8 1012.3
13E OREGON INLT  1546      62                N/A     4/ 8   3/ 8
HATTERAS CG      1548   71 68  230/ 12/ 18 1013.1
DIAMOND BUOY     NOT AVBL
CAPE LOOKOUT     1600   70     250/ 12/ 16 1013.8
BEAUFORT LAB     1548   72 67  220/  6/ 13 1014.3
30 SE NEW RVR IN 1508   69 70  270/ 17/ 23 1013.7
30 SE NEW RVR IN 1600      70                N/A     6/ 5   2/12
27 SE WRIGHTSVLE 1508   69 68  280/ 17/ 21 1014.6
5 SE WRIGHTSVLE  1508   69 67  270/  6/ 10 1014.4
27 SE WRIGHTSVL  1508   69 68  280/ 17/ 21 1014.6
FRYING PAN BUOY  1550   69     200/ 14/ 16 1015.7    4/ 5   2/ 9
225 S CAPE HAT   1550          230/ 12/ 16 1018.0
41 SE CHARLESTON 1550      71  230/ 14/ 17 1016.9    4/ 8   2/ 8

$$